| time (UTC) | temp F | wind direction | speed MPH | gust MPH | rain 1hr in | rain 24hr in | rain mn in | humidity % | barometer mb |
| 20260902114511 | 63 | 198 | 3.0 | 0.0 | 0.00 | 0.00 | 0.00 | 81 | 1002.2 |
| 20260902113005 | 63 | 200 | 0.0 | 0.0 | 0.00 | 0.00 | 0.00 | 79 | 1002.2 |
| 20260902111513 | 64 | 200 | 1.0 | 0.0 | 0.00 | 0.00 | 0.00 | 79 | 1002.2 |
| 20260902110031 | 64 | 205 | 3.0 | 0.0 | 0.00 | 0.00 | 0.00 | 80 | 1002.0 |
| 20260902104526 | 64 | 178 | 1.0 | 0.0 | 0.00 | 0.00 | 0.00 | 79 | 1002.0 |
| 20260902103017 | 64 | 193 | 1.0 | 0.0 | 0.00 | 0.00 | 0.00 | 79 | 1002.0 |
| 20260902101521 | 65 | 166 | 1.0 | 0.0 | 0.00 | 0.00 | 0.00 | 77 | 1002.2 |
| 20260902100106 | 65 | 209 | 1.0 | 0.0 | 0.00 | 0.00 | 0.00 | 77 | 1002.2 |
| 20260902094539 | 65 | 192 | 2.0 | 0.0 | 0.00 | 0.00 | 0.00 | 77 | 1002.2 |
| 20260902093008 | 65 | 195 | 3.0 | 0.0 | 0.00 | 0.00 | 0.00 | 77 | 1002.2 |
| 20260902091517 | 65 | 164 | 3.0 | 0.0 | 0.00 | 0.00 | 0.00 | 77 | 1002.3 |
| 20260902090026 | 65 | 193 | 2.0 | 0.0 | 0.00 | 0.00 | 0.00 | 76 | 1002.5 |
| 20260902084529 | 66 | 195 | 2.0 | 0.0 | 0.00 | 0.00 | 0.00 | 75 | 1002.2 |
| 20260902083034 | 66 | 172 | 4.0 | 0.0 | 0.00 | 0.00 | 0.00 | 74 | 1002.3 |
| 20260902081611 | 66 | 193 | 4.0 | 0.0 | 0.00 | 0.00 | 0.00 | 75 | 1002.4 |
| 20260902080107 | 67 | 150 | 3.0 | 0.0 | 0.00 | 0.00 | 0.00 | 71 | 1002.2 |
| 20260902074600 | 69 | 198 | 4.0 | 0.0 | 0.00 | 0.00 | 0.00 | 66 | 1002.1 |
| 20260902074502 | 69 | 192 | 4.0 | 0.0 | 0.00 | 0.00 | 0.00 | 66 | 1002.1 |
| 20260902073050 | 69 | 236 | 5.0 | 0.0 | 0.00 | 0.00 | 0.00 | 65 | 1001.7 |
| 20260902071540 | 70 | 226 | 6.0 | 0.0 | 0.00 | 0.00 | 0.00 | 64 | 1001.7 |
| 20260902070045 | 69 | 220 | 5.0 | 0.0 | 0.00 | 0.00 | 0.00 | 65 | 1001.7 |
| 20260902064542 | 69 | 240 | 4.0 | 0.0 | 0.00 | 0.00 | 0.00 | 64 | 1001.7 |
| 20260902063111 | 70 | 243 | 4.0 | 0.0 | 0.00 | 0.00 | 0.00 | 64 | 1001.8 |
| 20260902061552 | 71 | 289 | 3.0 | 0.0 | 0.00 | 0.00 | 0.00 | 62 | 1001.6 |
| 20260902060011 | 72 | 236 | 4.0 | 0.0 | 0.00 | 0.00 | 0.00 | 58 | 1002.0 |
| 20260902054528 | 72 | 219 | 6.0 | 0.0 | 0.00 | 0.00 | 0.00 | 57 | 1002.2 |
| 20260902053032 | 72 | 222 | 5.0 | 0.0 | 0.00 | 0.00 | 0.00 | 59 | 1002.5 |
| 20260902051545 | 71 | 212 | 6.0 | 0.0 | 0.00 | 0.00 | 0.00 | 61 | 1002.5 |
| 20260902050013 | 71 | 247 | 6.0 | 0.0 | 0.00 | 0.00 | 0.00 | 61 | 1003.0 |
| 20260902044536 | 71 | 217 | 7.0 | 0.0 | 0.00 | 0.00 | 0.00 | 62 | 1003.2 |
| 20260902043053 | 70 | 199 | 5.0 | 0.0 | 0.00 | 0.00 | 0.00 | 65 | 1003.3 |
| 20260902041520 | 68 | 203 | 5.0 | 0.0 | 0.00 | 0.00 | 0.00 | 72 | 1003.7 |
| 20260902040030 | 67 | 217 | 4.0 | 0.0 | 0.00 | 0.00 | 0.00 | 80 | 1004.2 |
| 20260902034536 | 66 | 200 | 5.0 | 0.0 | 0.00 | 0.00 | 0.00 | 84 | 1004.2 |
| 20260902033042 | 67 | 185 | 3.0 | 0.0 | 0.00 | 0.00 | 0.00 | 86 | 1004.2 |
| 20260902031551 | 67 | 175 | 1.0 | 0.0 | 0.00 | 0.00 | 0.00 | 86 | 1004.0 |
| 20260902030055 | 67 | 322 | 1.0 | 0.0 | 0.00 | 0.00 | 0.00 | 85 | 1004.9 |
| 20260902024517 | 67 | 323 | 0.0 | 0.0 | 0.00 | 0.00 | 0.00 | 83 | 1004.7 |
| 20260902023022 | 67 | 322 | 1.0 | 0.0 | 0.00 | 0.00 | 0.00 | 81 | 1004.6 |
| 20260902021545 | 68 | 219 | 4.0 | 0.0 | 0.00 | 0.00 | 0.00 | 78 | 1004.6 |
| 20260902020011 | 69 | 205 | 11.0 | 0.0 | 0.00 | 0.00 | 0.00 | 75 | 1005.1 |
| 20260902014542 | 71 | 206 | 9.0 | 0.0 | 0.00 | 0.00 | 0.00 | 74 | 1004.7 |
| 20260902013023 | 72 | 196 | 7.0 | 0.0 | 0.00 | 0.00 | 0.00 | 70 | 1004.5 |
| 20260902011547 | 77 | 207 | 13.0 | 0.0 | 0.00 | 0.00 | 0.00 | 57 | 1002.8 |
| 20260902010014 | 87 | 140 | 0.0 | 0.0 | 0.00 | 0.00 | 0.00 | 33 | 1001.8 |
| 20260902004507 | 88 | 135 | 1.0 | 0.0 | 0.00 | 0.00 | 0.00 | 30 | 1001.8 |
| 20260902003043 | 89 | 155 | 2.0 | 0.0 | 0.00 | 0.00 | 0.00 | 27 | 1001.8 |
| 20260902001543 | 89 | 188 | 1.0 | 0.0 | 0.00 | 0.00 | 0.00 | 28 | 1001.8 |
| 20260902000047 | 90 | 207 | 4.0 | 0.0 | 0.00 | 0.00 | 0.00 | 26 | 1002.1 |
| 20260901234603 | 91 | 231 | 3.0 | 0.0 | 0.00 | 0.00 | 0.00 | 26 | 1001.9 |
| 20260901233019 | 92 | 199 | 5.0 | 0.0 | 0.00 | 0.00 | 0.00 | 24 | 1001.8 |
| 20260901231549 | 93 | 198 | 6.0 | 0.0 | 0.00 | 0.00 | 0.00 | 23 | 1001.8 |
| 20260901230020 | 93 | 183 | 6.0 | 0.0 | 0.00 | 0.00 | 0.00 | 23 | 1002.0 |
| 20260901224522 | 92 | 121 | 5.0 | 0.0 | 0.00 | 0.00 | 0.00 | 23 | 1002.1 |
| 20260901223028 | 92 | 165 | 5.0 | 0.0 | 0.00 | 0.00 | 0.00 | 24 | 1002.2 |
| 20260901221555 | 93 | 220 | 7.0 | 0.0 | 0.00 | 0.00 | 0.00 | 23 | 1002.1 |
| 20260901220024 | 94 | 189 | 6.0 | 0.0 | 0.00 | 0.00 | 0.00 | 23 | 1002.0 |
| 20260901214526 | 93 | 185 | 6.0 | 0.0 | 0.00 | 0.00 | 0.00 | 23 | 1002.0 |
| 20260901213016 | 92 | 223 | 5.0 | 0.0 | 0.00 | 0.00 | 0.00 | 24 | 1002.3 |
| 20260901211538 | 91 | 236 | 6.0 | 0.0 | 0.00 | 0.00 | 0.00 | 25 | 1002.4 |
| 20260901210050 | 91 | 282 | 8.0 | 0.0 | 0.00 | 0.00 | 0.00 | 25 | 1002.7 |
| 20260901204558 | 91 | 209 | 8.0 | 0.0 | 0.00 | 0.00 | 0.00 | 25 | 1002.9 |
| 20260901203009 | 91 | 222 | 7.0 | 0.0 | 0.00 | 0.00 | 0.00 | 25 | 1003.3 |
| 20260901201523 | 91 | 213 | 7.0 | 0.0 | 0.00 | 0.00 | 0.00 | 25 | 1003.5 |
| 20260901200010 | 90 | 255 | 9.0 | 0.0 | 0.00 | 0.00 | 0.00 | 25 | 1003.7 |
| 20260901194516 | 90 | 193 | 11.0 | 0.0 | 0.00 | 0.00 | 0.00 | 26 | 1003.9 |
| 20260901193051 | 91 | 229 | 11.0 | 0.0 | 0.00 | 0.00 | 0.00 | 25 | 1004.0 |
| 20260901191536 | 90 | 207 | 10.0 | 0.0 | 0.00 | 0.00 | 0.00 | 27 | 1004.0 |
| 20260901190058 | 90 | 118 | 10.0 | 0.0 | 0.00 | 0.00 | 0.00 | 28 | 1003.6 |
| 20260901184603 | 90 | 213 | 8.0 | 0.0 | 0.00 | 0.00 | 0.00 | 30 | 1003.8 |
| 20260901183054 | 89 | 206 | 8.0 | 0.0 | 0.00 | 0.00 | 0.00 | 34 | 1004.0 |
| 20260901181558 | 88 | 229 | 7.0 | 0.0 | 0.00 | 0.00 | 0.00 | 35 | 1004.2 |
| 20260901180003 | 87 | 237 | 6.0 | 0.0 | 0.00 | 0.00 | 0.00 | 37 | 1004.3 |
| 20260901174509 | 86 | 199 | 7.0 | 0.0 | 0.00 | 0.00 | 0.00 | 36 | 1004.5 |
| 20260901173037 | 85 | 206 | 8.0 | 0.0 | 0.00 | 0.00 | 0.00 | 41 | 1004.9 |
| 20260901171509 | 84 | 168 | 6.0 | 0.0 | 0.00 | 0.00 | 0.00 | 41 | 1004.7 |
| 20260901170033 | 83 | 179 | 6.0 | 0.0 | 0.00 | 0.00 | 0.00 | 44 | 1005.1 |
| 20260901164539 | 82 | 200 | 6.0 | 0.0 | 0.00 | 0.00 | 0.00 | 47 | 1005.2 |
| 20260901163044 | 81 | 161 | 6.0 | 0.0 | 0.00 | 0.00 | 0.00 | 47 | 1005.4 |
| 20260901161522 | 80 | 216 | 7.0 | 0.0 | 0.00 | 0.00 | 0.00 | 47 | 1005.9 |
| 20260901160046 | 79 | 205 | 6.0 | 0.0 | 0.00 | 0.00 | 0.00 | 49 | 1005.5 |
| 20260901154530 | 78 | 166 | 4.0 | 0.0 | 0.00 | 0.00 | 0.00 | 52 | 1005.7 |
| 20260901153051 | 77 | 179 | 3.0 | 0.0 | 0.00 | 0.00 | 0.00 | 53 | 1006.1 |
| 20260901151545 | 76 | 147 | 3.0 | 0.0 | 0.00 | 0.00 | 0.00 | 58 | 1006.3 |
| 20260901150048 | 74 | 192 | 4.0 | 0.0 | 0.00 | 0.00 | 0.00 | 62 | 1006.2 |
| 20260901144551 | 73 | 182 | 4.0 | 0.0 | 0.00 | 0.00 | 0.00 | 65 | 1006.4 |
| 20260901143059 | 71 | 161 | 3.0 | 0.0 | 0.00 | 0.00 | 0.00 | 67 | 1006.3 |
| 20260901141507 | 70 | 207 | 4.0 | 0.0 | 0.00 | 0.00 | 0.00 | 71 | 1006.7 |
| 20260901140015 | 68 | 206 | 3.0 | 0.0 | 0.00 | 0.00 | 0.00 | 73 | 1006.3 |
| 20260901134556 | 67 | 196 | 2.0 | 0.0 | 0.00 | 0.00 | 0.00 | 75 | 1006.1 |
| 20260901133040 | 66 | 178 | 1.0 | 0.0 | 0.00 | 0.00 | 0.00 | 78 | 1006.4 |
| 20260901131515 | 65 | 189 | 2.0 | 0.0 | 0.00 | 0.00 | 0.00 | 79 | 1006.2 |
| 20260901130047 | 64 | 182 | 4.0 | 0.0 | 0.00 | 0.00 | 0.00 | 81 | 1005.8 |
| 20260901124602 | 64 | 247 | 2.0 | 0.0 | 0.00 | 0.00 | 0.00 | 84 | 1005.5 |
| 20260901123004 | 64 | 144 | 2.0 | 0.0 | 0.00 | 0.00 | 0.00 | 85 | 1005.2 |
| 20260901121513 | 63 | 247 | 3.0 | 0.0 | 0.00 | 0.00 | 0.00 | 86 | 1005.4 |
| 20260901120014 | 63 | 265 | 2.0 | 0.0 | 0.00 | 0.00 | 0.00 | 86 | 1004.7 |